AAL3 KILM-KPHL

Flight info

Callsign AAL3
Flight time 0h 53m
Altitude 39000
Route WALLO YEASO Q97 ZJAAY JIIMS4
Aircraft B77W/H-SDE1E2E3FGHIJ2J3J4J5M1RWXY/LB1D1

Departure

Time 2026-05-05 00:30
Airport Wilmington International Airport (KILM)

Arrival

Time 2026-05-05 01:24
Airport Philadelphia International Airport (KPHL)
Time Latitude Longitude Altitude Speed Heading
2026-05-04 22:23 34.26464 -77.91108 35 ft 0 kts 93°
2026-05-05 00:28 34.26463 -77.91074 35 ft 10 kts 91°
2026-05-05 00:28 34.26495 -77.90937 35 ft 23 kts 55°
2026-05-05 00:29 34.26624 -77.90753 36 ft 32 kts 49°
2026-05-05 00:29 34.26783 -77.90530 37 ft 36 kts 49°
2026-05-05 00:29 34.26951 -77.90286 37 ft 38 kts 51°
2026-05-05 00:29 34.27123 -77.90021 36 ft 40 kts 51°
2026-05-05 00:30 34.27303 -77.89764 34 ft 39 kts 48°
2026-05-05 00:30 34.27224 -77.89626 34 ft 49 kts 230°
2026-05-05 00:30 34.26732 -77.90305 142 ft 154 kts 226°
2026-05-05 00:30 34.26214 -77.91444 1403 ft 178 kts 264°
2026-05-05 00:31 34.26773 -77.92744 3091 ft 199 kts 326°
2026-05-05 00:31 34.27891 -77.93246 5129 ft 186 kts 349°
2026-05-05 00:31 34.29174 -77.93366 6674 ft 199 kts 355°
2026-05-05 00:31 34.30527 -77.93435 8286 ft 209 kts 355°
2026-05-05 00:32 34.31968 -77.93507 9890 ft 220 kts 355°
2026-05-05 00:32 34.33519 -77.93584 11413 ft 236 kts 355°
2026-05-05 00:32 34.35160 -77.93666 12947 ft 252 kts 355°
2026-05-05 00:32 34.36951 -77.93755 14482 ft 269 kts 354°
2026-05-05 00:33 34.38843 -77.93851 15914 ft 287 kts 354°
2026-05-05 00:33 34.40883 -77.93955 17376 ft 305 kts 353°
2026-05-05 00:33 34.43024 -77.94065 18766 ft 323 kts 353°
2026-05-05 00:33 34.45325 -77.94183 20202 ft 340 kts 353°
2026-05-05 00:34 34.47711 -77.94304 21604 ft 354 kts 353°
2026-05-05 00:34 34.49600 -77.94399 22632 ft 366 kts 353°
2026-05-05 00:34 34.52195 -77.94530 23915 ft 381 kts 353°
2026-05-05 00:34 34.54900 -77.94666 25083 ft 398 kts 353°
2026-05-05 00:35 34.57706 -77.94805 26161 ft 414 kts 353°
2026-05-05 00:35 34.60659 -77.94952 27162 ft 430 kts 353°
2026-05-05 00:35 34.63707 -77.95103 28031 ft 446 kts 353°
2026-05-05 00:35 34.66899 -77.95260 28810 ft 463 kts 353°
2026-05-05 00:36 34.70159 -77.95420 29534 ft 479 kts 353°
2026-05-05 00:36 34.73563 -77.95583 30601 ft 486 kts 353°
2026-05-05 00:36 34.76936 -77.95741 32002 ft 483 kts 353°
2026-05-05 00:36 34.80262 -77.95896 33404 ft 478 kts 352°
2026-05-05 00:37 34.83620 -77.96040 34576 ft 476 kts 354°
2026-05-05 00:37 34.86951 -77.95762 35378 ft 483 kts
2026-05-05 00:37 34.90270 -77.94840 36119 ft 491 kts 12°
2026-05-05 00:37 34.93493 -77.93359 37006 ft 494 kts 17°
2026-05-05 00:38 34.96682 -77.91745 37862 ft 493 kts 17°
2026-05-05 00:38 34.99876 -77.90121 38551 ft 494 kts 17°
2026-05-05 00:38 35.03082 -77.88492 39022 ft 499 kts 17°
2026-05-05 00:38 35.06372 -77.86826 39058 ft 513 kts 17°
2026-05-05 00:39 35.09703 -77.85138 39060 ft 523 kts 17°
2026-05-05 00:39 35.15550 -77.82171 39055 ft 531 kts 18°
2026-05-05 00:40 35.22437 -77.78669 39053 ft 533 kts 18°
2026-05-05 00:40 35.29291 -77.75179 39048 ft 532 kts 17°
2026-05-05 00:41 35.36188 -77.71664 39049 ft 532 kts 18°
2026-05-05 00:41 35.43029 -77.68172 39055 ft 531 kts 17°
2026-05-05 00:42 35.49912 -77.64652 39051 ft 531 kts 18°
2026-05-05 00:42 35.56630 -77.60729 39045 ft 538 kts 27°
2026-05-05 00:43 35.62889 -77.55570 39045 ft 540 kts 30°
2026-05-05 00:43 35.69142 -77.50316 39037 ft 540 kts 30°
2026-05-05 00:44 35.75359 -77.45084 39039 ft 540 kts 30°
2026-05-05 00:44 35.81555 -77.39863 39043 ft 538 kts 30°
2026-05-05 00:45 35.87808 -77.34585 39050 ft 539 kts 31°
2026-05-05 00:45 35.94008 -77.29341 39036 ft 538 kts 31°
2026-05-05 00:46 36.00208 -77.24088 39035 ft 538 kts 31°
2026-05-05 00:46 36.06425 -77.18810 39021 ft 538 kts 31°
2026-05-05 00:47 36.12608 -77.13551 39022 ft 538 kts 31°
2026-05-05 00:47 36.18834 -77.08245 39016 ft 537 kts 31°
2026-05-05 00:48 36.25032 -77.02951 39011 ft 536 kts 31°
2026-05-05 00:48 36.31221 -76.97657 39015 ft 536 kts 31°
2026-05-05 00:49 36.37366 -76.92390 39020 ft 537 kts 31°
2026-05-05 00:49 36.43552 -76.87077 39013 ft 537 kts 31°
2026-05-05 00:50 36.49746 -76.81745 39010 ft 537 kts 31°
2026-05-05 00:50 36.55957 -76.76389 39003 ft 537 kts 30°
2026-05-05 00:51 36.61890 -76.71263 39016 ft 537 kts 31°
2026-05-05 00:51 36.66330 -76.67421 39009 ft 537 kts 30°
2026-05-05 00:52 36.72548 -76.62030 39006 ft 537 kts 30°
2026-05-05 00:52 36.78731 -76.56658 39008 ft 537 kts 30°
2026-05-05 00:53 36.84896 -76.51292 39001 ft 537 kts 31°
2026-05-05 00:53 36.91038 -76.45936 39001 ft 537 kts 31°
2026-05-05 00:54 36.97199 -76.40551 38995 ft 536 kts 31°
2026-05-05 00:54 37.03357 -76.35159 38991 ft 536 kts 31°
2026-05-05 00:55 37.09494 -76.29774 38981 ft 536 kts 31°
2026-05-05 00:55 37.15680 -76.24335 38974 ft 536 kts 31°
2026-05-05 00:56 37.21817 -76.18928 38980 ft 537 kts 31°
2026-05-05 00:56 37.27970 -76.13496 38979 ft 536 kts 31°
2026-05-05 00:57 37.34107 -76.08067 38975 ft 535 kts 32°
2026-05-05 00:57 37.40208 -76.02659 38979 ft 536 kts 32°
2026-05-05 00:58 37.46321 -75.97229 38976 ft 535 kts 31°
2026-05-05 00:58 37.52412 -75.91808 38981 ft 535 kts 32°
2026-05-05 00:59 37.58529 -75.86352 38980 ft 535 kts 32°
2026-05-05 00:59 37.64613 -75.80915 38980 ft 534 kts 32°
2026-05-05 01:00 37.70697 -75.75466 38989 ft 534 kts 32°
2026-05-05 01:00 37.76747 -75.70038 38985 ft 533 kts 32°
2026-05-05 01:01 37.82820 -75.64577 38992 ft 533 kts 32°
2026-05-05 01:01 37.88868 -75.59128 38983 ft 533 kts 32°
2026-05-05 01:02 37.94907 -75.53674 38978 ft 532 kts 32°
2026-05-05 01:02 38.00927 -75.48229 38990 ft 531 kts 32°
2026-05-05 01:03 38.07133 -75.43158 38977 ft 525 kts 22°
2026-05-05 01:03 38.13760 -75.39262 38985 ft 524 kts 21°
2026-05-05 01:04 38.20456 -75.35368 38983 ft 524 kts 21°
2026-05-05 01:04 38.30432 -75.29530 38971 ft 524 kts 21°
2026-05-05 01:05 38.37070 -75.25628 38968 ft 524 kts 21°
2026-05-05 01:05 38.43684 -75.21729 38968 ft 523 kts 21°
2026-05-05 01:06 38.50356 -75.17786 38964 ft 523 kts 21°
2026-05-05 01:06 38.56943 -75.13884 38960 ft 523 kts 21°
2026-05-05 01:07 38.63494 -75.09776 38952 ft 523 kts 24°
2026-05-05 01:07 38.69877 -75.05662 38954 ft 522 kts 24°
2026-05-05 01:08 38.76182 -75.01602 38963 ft 523 kts 24°
2026-05-05 01:08 38.82722 -74.97388 38974 ft 524 kts 24°
2026-05-05 01:09 38.89237 -74.93185 38974 ft 523 kts 24°
2026-05-05 01:09 38.95770 -74.88964 38970 ft 522 kts 24°
2026-05-05 01:10 39.02290 -74.84820 38932 ft 517 kts 19°
2026-05-05 01:10 39.05649 -74.83300 38361 ft 501 kts 12°
2026-05-05 01:10 39.09034 -74.82439 37492 ft 492 kts
2026-05-05 01:11 39.12420 -74.82252 36625 ft 484 kts 354°
2026-05-05 01:11 39.15764 -74.82731 35931 ft 477 kts 346°
2026-05-05 01:11 39.19010 -74.83758 35285 ft 472 kts 342°
2026-05-05 01:11 39.22203 -74.84905 34469 ft 476 kts 342°
2026-05-05 01:12 39.25412 -74.86082 33368 ft 483 kts 342°
2026-05-05 01:12 39.28653 -74.87280 32167 ft 490 kts 342°
2026-05-05 01:12 39.31948 -74.88508 30915 ft 496 kts 342°
2026-05-05 01:12 39.35274 -74.89752 29537 ft 498 kts 342°
2026-05-05 01:13 39.38622 -74.91009 28006 ft 500 kts 342°
2026-05-05 01:13 39.42000 -74.92121 26480 ft 502 kts 347°
2026-05-05 01:13 39.45443 -74.92647 24975 ft 506 kts 355°
2026-05-05 01:13 39.48991 -74.92755 23442 ft 507 kts 356°
2026-05-05 01:14 39.52535 -74.92810 21944 ft 507 kts 356°
2026-05-05 01:14 39.56067 -74.92860 20492 ft 507 kts 356°
2026-05-05 01:14 39.59611 -74.92911 19036 ft 505 kts 356°
2026-05-05 01:14 39.63039 -74.92958 17487 ft 488 kts 356°
2026-05-05 01:15 39.66348 -74.93002 16371 ft 458 kts 356°
2026-05-05 01:15 39.69429 -74.93040 15893 ft 420 kts 356°
2026-05-05 01:15 39.72248 -74.92899 15824 ft 385 kts
2026-05-05 01:15 39.74697 -74.91800 15765 ft 358 kts 22°
2026-05-05 01:16 39.76830 -74.90322 15686 ft 318 kts 25°
2026-05-05 01:16 39.78629 -74.89023 15285 ft 283 kts 17°
2026-05-05 01:16 39.80463 -74.88251 14279 ft 279 kts 11°
2026-05-05 01:16 39.82332 -74.87513 12987 ft 287 kts 12°
2026-05-05 01:17 39.84262 -74.86923 11655 ft 288 kts
2026-05-05 01:17 39.86250 -74.86690 10317 ft 286 kts 353°
2026-05-05 01:17 39.88138 -74.87268 8942 ft 275 kts 328°
2026-05-05 01:17 39.89740 -74.88538 7642 ft 272 kts 322°
2026-05-05 01:18 39.90974 -74.89600 6651 ft 270 kts 322°
2026-05-05 01:18 39.92247 -74.90922 5740 ft 257 kts 304°
2026-05-05 01:18 39.92988 -74.92932 4739 ft 240 kts 275°
2026-05-05 01:18 39.93082 -74.95077 3769 ft 233 kts 263°
2026-05-05 01:19 39.92683 -74.97046 3347 ft 215 kts 248°
2026-05-05 01:19 39.92233 -74.98756 3328 ft 186 kts 249°
2026-05-05 01:19 39.91888 -75.00293 3327 ft 177 kts 251°
2026-05-05 01:19 39.91539 -75.02012 3343 ft 200 kts 252°
2026-05-05 01:20 39.91207 -75.03738 3099 ft 190 kts 252°
2026-05-05 01:20 39.90894 -75.05336 2840 ft 172 kts 251°
2026-05-05 01:20 39.90605 -75.06786 2607 ft 156 kts 250°
2026-05-05 01:20 39.90340 -75.08115 2387 ft 144 kts 250°
2026-05-05 01:21 39.90094 -75.09355 2139 ft 139 kts 249°
2026-05-05 01:21 39.89851 -75.10579 1834 ft 140 kts 249°
2026-05-05 01:21 39.89611 -75.11798 1602 ft 134 kts 249°
2026-05-05 01:21 39.89383 -75.12947 1451 ft 129 kts 249°
2026-05-05 01:22 39.89154 -75.14094 1285 ft 133 kts 250°
2026-05-05 01:22 39.88904 -75.15350 1108 ft 149 kts 250°
2026-05-05 01:22 39.88648 -75.16650 910 ft 149 kts 250°
2026-05-05 01:22 39.88387 -75.17962 712 ft 146 kts 251°
2026-05-05 01:23 39.88126 -75.19255 474 ft 154 kts 252°
2026-05-05 01:23 39.87855 -75.20626 336 ft 152 kts 253°
2026-05-05 01:23 39.87608 -75.21893 121 ft 139 kts 252°
2026-05-05 01:23 39.87373 -75.23040 24 ft 119 kts 254°
2026-05-05 01:24 39.87221 -75.23810 23 ft 56 kts 255°
2026-05-05 01:24 39.87208 -75.24132 23 ft 16 kts 317°
2026-05-05 01:24 39.87220 -75.24144 23 ft 0 kts 325°
2026-05-05 01:24 39.87249 -75.24167 23 ft 0 kts 334°
2026-05-05 01:25 39.87262 -75.24176 23 ft 6 kts 334°
2026-05-05 01:25 39.87322 -75.24213 23 ft 6 kts 338°
2026-05-05 01:25 39.87392 -75.24239 23 ft 9 kts 348°
2026-05-05 01:25 39.87454 -75.24242 23 ft 9 kts 40°
2026-05-05 01:26 39.87468 -75.24206 23 ft 0 kts 75°
2026-05-05 01:26 39.87468 -75.24205 23 ft 0 kts 75°
2026-05-05 01:26 39.87469 -75.24203 23 ft 3 kts 75°
2026-05-05 01:27 39.87469 -75.24201 23 ft 0 kts 75°
2026-05-05 01:27 39.87465 -75.24195 23 ft 2 kts 147°
2026-05-05 01:27 39.87453 -75.24226 23 ft 6 kts 281°
2026-05-05 01:28 39.87512 -75.24270 23 ft 13 kts 346°
2026-05-05 01:28 39.87564 -75.24232 23 ft 0 kts 48°